Location: Brno
(49.1951°N, 16.6068°E)
Time: 18:32:58
(UTC+01:00)

ISS - Visible Passes

Search period start: 28 March 2020 00:00
Search period end: 07 April 2020 01:00
Orbit: 417 x 423 km, 51.6° (Epoch: 29 March)

Date Brightness Start Highest point End Pass type
(mag) Time Alt. Az. Time Alt. Az. Time Alt. Az.
28 Mar -3.5 19:56:17 10° WNW 19:59:37 61° N 20:00:42 37° ENE visible
28 Mar -0.7 21:33:09 10° WNW 21:33:40 13° WNW 21:33:40 13° WNW visible
29 Mar -3.3 20:08:53 10° WNW 20:12:12 55° N 20:15:13 12° E visible
29 Mar -2.7 21:45:46 10° WNW 21:48:12 43° W 21:48:12 43° W visible
30 Mar -3.9 20:58:23 10° WNW 21:01:46 90° WSW 21:02:43 44° ESE visible
30 Mar -0.5 22:35:35 10° W 22:35:41 11° W 22:35:41 11° W visible
31 Mar -3.7 20:11:00 10° WNW 20:14:23 72° NNE 20:17:16 13° E visible
31 Mar -2.1 21:47:59 10° W 21:50:14 28° WSW 21:50:14 28° WSW visible
01 Apr -3.2 21:00:30 10° WNW 21:03:45 47° SSW 21:04:47 34° SSE visible
02 Apr -3.6 20:13:03 10° WNW 20:16:25 67° SSW 20:19:22 13° ESE visible
02 Apr -1.3 21:50:44 10° W 21:52:21 15° SW 21:52:21 15° SW visible
03 Apr -1.9 21:02:50 10° W 21:05:31 22° SW 21:06:59 17° S visible
04 Apr -2.4 20:15:12 10° W 20:18:14 32° SW 20:21:17 10° SSE visible
06 Apr -1.1 20:17:52 10° W 20:19:51 15° SW 20:21:49 10° S visible
